When you browse on this site, cookies collect data to enhance your experience and personalize the content and advertising you see.
Visit our Privacy Policy to learn more. By continuing to use the site, you agree to this use of cookies and data.
  • In Schweiz
  • Länderverzeichnis
  • Für 7 Tage
  • Wassertemperatur
  • Satellitenkarten
  • Wetterkarte
  • Widgets
  • user-avatar
    Anmelden

    Stündliche Wetter Benguela

    Heute, 22 Januar, Dienstag

    Zeit Temperatur Niederschläge Wind Luftdruck Luftfeuchtigkeit
    00:00 +28°C° 0 mm 1 m/S 759 mmHg 76%
    01:00 +28°C° 0 mm 1 m/S 759 mmHg 76%
    02:00 +28°C° 0 mm 1 m/S 759 mmHg 77%
    03:00 +28°C° 0 mm 1 m/S 759 mmHg 78%
    04:00 +27°C° 0 mm 1 m/S 759 mmHg 79%
    05:00 +28°C° 0.1 mm 1 m/S 759 mmHg 78%
    06:00 +28°C° 0.1 mm 1 m/S 759 mmHg 78%
    07:00 +26°C° 0.1 mm 0 m/S 759 mmHg 77%
    08:00 +29°C° 0.1 mm 1 m/S 759 mmHg 71%
    09:00 +31°C° 0.1 mm 2 m/S 759 mmHg 65%
    10:00 +32°C° 0.1 mm 2 m/S 760 mmHg 59%
    11:00 +33°C° 0 mm 3 m/S 759 mmHg 58%
    12:00 +34°C° 0 mm 4 m/S 758 mmHg 56%
    13:00 +35°C° 0 mm 5 m/S 758 mmHg 55%
    14:00 +34°C° 0 mm 5 m/S 758 mmHg 56%
    15:00 +34°C° 0 mm 5 m/S 757 mmHg 57%
    16:00 +34°C° 0 mm 6 m/S 757 mmHg 58%
    17:00 +32°C° 0.1 mm 5 m/S 757 mmHg 62%
    18:00 +30°C° 0.1 mm 5 m/S 758 mmHg 66%
    19:00 +29°C° 0.1 mm 4 m/S 758 mmHg 70%
    20:00 +29°C° 0.2 mm 4 m/S 758 mmHg 71%
    21:00 +29°C° 0.2 mm 3 m/S 759 mmHg 72%
    22:00 +28°C° 0.2 mm 3 m/S 760 mmHg 73%
    23:00 +28°C° 0.6 mm 2 m/S 760 mmHg 76%

    Morgen, 23 Januar, Mittwoch

    Zeit Temperatur Niederschläge Wind Luftdruck Luftfeuchtigkeit
    00:00 +28°C° 0.6 mm 2 m/S 759 mmHg 78%
    01:00 +27°C° 0.6 mm 2 m/S 759 mmHg 80%
    02:00 +27°C° 0.2 mm 1 m/S 759 mmHg 80%
    03:00 +27°C° 0.2 mm 1 m/S 759 mmHg 81%
    04:00 +26°C° 0.2 mm 1 m/S 759 mmHg 82%
    05:00 +27°C° 0 mm 1 m/S 759 mmHg 80%
    06:00 +25°C° 0 mm 0 m/S 759 mmHg 79%
    07:00 +25°C° 0 mm 0 m/S 760 mmHg 77%
    08:00 +28°C° 0 mm 1 m/S 760 mmHg 71%
    09:00 +29°C° 0 mm 1 m/S 760 mmHg 65%
    10:00 +30°C° 0 mm 2 m/S 760 mmHg 59%
    11:00 +31°C° 0 mm 3 m/S 759 mmHg 57%
    12:00 +33°C° 0 mm 4 m/S 759 mmHg 55%
    13:00 +34°C° 0 mm 5 m/S 758 mmHg 53%
    14:00 +33°C° 0 mm 5 m/S 758 mmHg 56%
    15:00 +32°C° 0 mm 4 m/S 757 mmHg 58%
    16:00 +32°C° 0 mm 4 m/S 757 mmHg 60%
    17:00 +30°C° 0 mm 3 m/S 758 mmHg 64%
    18:00 +29°C° 0 mm 3 m/S 758 mmHg 68%
    19:00 +28°C° 0 mm 2 m/S 759 mmHg 72%
    20:00 +28°C° 0 mm 1 m/S 759 mmHg 74%
    21:00 +28°C° 0 mm 1 m/S 760 mmHg 75%
    22:00 +26°C° 0 mm 0 m/S 760 mmHg 76%
    23:00 +26°C° 0 mm 0 m/S 760 mmHg 76%

    übermorgen, 24 Januar, Donnerstag

    Zeit Temperatur Niederschläge Wind Luftdruck Luftfeuchtigkeit
    00:00 +27°C° 0 mm 1 m/S 759 mmHg 77%
    01:00 +27°C° 0 mm 1 m/S 759 mmHg 77%
    02:00 +27°C° 0 mm 1 m/S 758 mmHg 78%
    03:00 +27°C° 0 mm 1 m/S 758 mmHg 78%
    04:00 +27°C° 0 mm 1 m/S 757 mmHg 79%
    05:00 +27°C° 0 mm 1 m/S 758 mmHg 78%
    06:00 +27°C° 0 mm 1 m/S 758 mmHg 77%
    07:00 +25°C° 0 mm 0 m/S 758 mmHg 76%
    08:00 +28°C° 0 mm 1 m/S 759 mmHg 71%
    09:00 +30°C° 0 mm 1 m/S 759 mmHg 65%
    10:00 +31°C° 0 mm 2 m/S 759 mmHg 60%
    11:00 +31°C° 0 mm 3 m/S 758 mmHg 58%
    12:00 +33°C° 0 mm 4 m/S 757 mmHg 57%
    13:00 +34°C° 0 mm 5 m/S 757 mmHg 55%
    14:00 +33°C° 0 mm 5 m/S 756 mmHg 57%
    15:00 +33°C° 0 mm 5 m/S 755 mmHg 60%
    16:00 +32°C° 0 mm 5 m/S 755 mmHg 62%
    17:00 +30°C° 0 mm 4 m/S 755 mmHg 66%
    18:00 +29°C° 0 mm 4 m/S 756 mmHg 69%
    19:00 +28°C° 0 mm 3 m/S 756 mmHg 73%
    20:00 +28°C° 0 mm 3 m/S 757 mmHg 73%
    21:00 +28°C° 0 mm 2 m/S 758 mmHg 73%
    22:00 +28°C° 0 mm 2 m/S 758 mmHg 74%
    23:00 +28°C° 0.2 mm 2 m/S 758 mmHg 74%

    25 Januar, Freitag

    Zeit Temperatur Niederschläge Wind Luftdruck Luftfeuchtigkeit
    00:00 +28°C° 0.2 mm 2 m/S 758 mmHg 74%
    01:00 +28°C° 0.2 mm 1 m/S 757 mmHg 74%
    02:00 +27°C° 1.3 mm 1 m/S 757 mmHg 77%
    03:00 +27°C° 1.3 mm 1 m/S 757 mmHg 79%
    04:00 +26°C° 1.3 mm 1 m/S 757 mmHg 81%
    05:00 +27°C° 0.1 mm 1 m/S 757 mmHg 80%
    06:00 +27°C° 0.1 mm 1 m/S 758 mmHg 79%
    07:00 +27°C° 0.1 mm 1 m/S 758 mmHg 78%
    08:00 +29°C° 0 mm 1 m/S 758 mmHg 72%
    09:00 +30°C° 0 mm 2 m/S 758 mmHg 66%
    10:00 +32°C° 0 mm 2 m/S 758 mmHg 60%
    11:00 +33°C° 0 mm 3 m/S 758 mmHg 59%
    12:00 +34°C° 0 mm 4 m/S 757 mmHg 59%
    13:00 +34°C° 0 mm 5 m/S 757 mmHg 58%
    14:00 +33°C° 0 mm 4 m/S 756 mmHg 59%
    15:00 +33°C° 0 mm 4 m/S 756 mmHg 60%
    16:00 +33°C° 0 mm 4 m/S 756 mmHg 61%
    17:00 +31°C° 0 mm 3 m/S 756 mmHg 65%
    18:00 +30°C° 0 mm 3 m/S 757 mmHg 69%
    19:00 +29°C° 0 mm 2 m/S 757 mmHg 73%
    20:00 +29°C° 0 mm 2 m/S 758 mmHg 73%
    21:00 +28°C° 0 mm 2 m/S 759 mmHg 74%
    22:00 +28°C° 0 mm 2 m/S 759 mmHg 75%
    23:00 +28°C° 0.1 mm 1 m/S 759 mmHg 76%

    26 Januar, Samstag

    Zeit Temperatur Niederschläge Wind Luftdruck Luftfeuchtigkeit
    00:00 +28°C° 0.1 mm 1 m/S 759 mmHg 76%
    01:00 +28°C° 0.1 mm 1 m/S 759 mmHg 77%
    02:00 +28°C° 0 mm 1 m/S 758 mmHg 78%
    03:00 +28°C° 0 mm 1 m/S 758 mmHg 78%
    04:00 +28°C° 0 mm 1 m/S 758 mmHg 79%
    05:00 +28°C° 0 mm 1 m/S 758 mmHg 78%
    06:00 +28°C° 0 mm 1 m/S 759 mmHg 77%
    07:00 +28°C° 0 mm 1 m/S 759 mmHg 77%
    08:00 +29°C° 0.1 mm 1 m/S 760 mmHg 71%
    09:00 +31°C° 0.1 mm 1 m/S 760 mmHg 66%
    10:00 +32°C° 0.1 mm 2 m/S 760 mmHg 60%
    11:00 +34°C° 0 mm 3 m/S 759 mmHg 57%
    12:00 +35°C° 0 mm 4 m/S 759 mmHg 54%
    13:00 +36°C° 0 mm 5 m/S 758 mmHg 51%
    14:00 +35°C° 0 mm 5 m/S 758 mmHg 55%
    15:00 +34°C° 0 mm 5 m/S 758 mmHg 58%
    16:00 +33°C° 0 mm 5 m/S 757 mmHg 62%
    17:00 +32°C° 0 mm 4 m/S 758 mmHg 66%
    18:00 +30°C° 0 mm 4 m/S 758 mmHg 70%
    19:00 +29°C° 0 mm 3 m/S 759 mmHg 74%
    20:00 +29°C° 0.1 mm 3 m/S 759 mmHg 75%
    21:00 +29°C° 0.1 mm 3 m/S 760 mmHg 75%
    22:00 +29°C° 0.1 mm 3 m/S 760 mmHg 76%
    23:00 +29°C° 0 mm 3 m/S 760 mmHg 76%

    27 Januar, Sonntag

    Zeit Temperatur Niederschläge Wind Luftdruck Luftfeuchtigkeit
    00:00 +28°C° 0 mm 3 m/S 759 mmHg 77%
    01:00 +28°C° 0 mm 3 m/S 759 mmHg 77%
    02:00 +28°C° 0.1 mm 3 m/S 758 mmHg 77%
    03:00 +28°C° 0.1 mm 2 m/S 758 mmHg 77%
    04:00 +28°C° 0.1 mm 2 m/S 758 mmHg 77%
    05:00 +28°C° 0.1 mm 2 m/S 758 mmHg 77%
    06:00 +28°C° 0.1 mm 2 m/S 758 mmHg 77%
    07:00 +28°C° 0.1 mm 1 m/S 759 mmHg 77%
    08:00 +30°C° 0.1 mm 2 m/S 759 mmHg 71%
    09:00 +31°C° 0.1 mm 2 m/S 759 mmHg 65%
    10:00 +33°C° 0.1 mm 3 m/S 759 mmHg 60%
    11:00 +34°C° 0 mm 4 m/S 758 mmHg 59%
    12:00 +34°C° 0 mm 5 m/S 757 mmHg 59%
    13:00 +35°C° 0 mm 6 m/S 757 mmHg 58%
    14:00 +34°C° 0 mm 5 m/S 756 mmHg 61%
    15:00 +33°C° 0 mm 5 m/S 756 mmHg 65%
    16:00 +32°C° 0 mm 4 m/S 756 mmHg 68%
    17:00 +30°C° 0.1 mm 4 m/S 756 mmHg 72%
    18:00 +30°C° 0.1 mm 3 m/S 757 mmHg 75%
    19:00 +29°C° 0.1 mm 2 m/S 758 mmHg 79%
    20:00 +29°C° 0.2 mm 2 m/S 758 mmHg 80%
    21:00 +29°C° 0.2 mm 2 m/S 758 mmHg 80%
    22:00 +28°C° 0.2 mm 1 m/S 759 mmHg 81%
    23:00 +28°C° 0.3 mm 2 m/S 758 mmHg 81%
    Mehr zeigen